If you wish to contribute or participate in the discussions about articles you are invited to join SKYbrary as a registered user

 Actions

Orléans-Bricy (BA 123) Air Base

From SKYbrary Wiki

LFOJ
Airport
ICAO: LFOJ – IATA: ORE
Summary
Name Orléans-Bricy (BA 123) Air Base
Region Europe
Territory France FR.gif
Location , Centre
Serving Orleans
Elevation 125.578 m
412 ft
412 ft125.578 m
Type medium airport
Coordinates 47° 59' 16.00" N, 1° 45' 38.00" E
Runways
Designator Length Width Surface ROPS
7/25 2404 m7,887.139 ft
45 m147.638 ft
ASP /


METAR
Observation LFOJ 112330Z AUTO 25011KT 9999 OVC020 04/03 Q1008
Station Orleans
Date/Time 11 December 2019 23:30:00
Wind direction 250°
Wind speed 11 kts
Lowest cloud amount overcast
Temperature 4°C
Dew point 3°C
Humidity 93%
QNH 1008 hPa
Weather condition n/a